Flag for France Weather past 2 weeks in Bastia, Corsica, France

Now
46 °F

Passing clouds.


Feels Like: 44 °F
Forecast: 47 / 58 °F
Wind: 5 mph from Southwest

Location: Bastia Airport

Current Time: Dec 22, 2014 at 10:33:03 PM

Latest Report: Dec 22, 2014 at 9:30 PM


Visibility: N/A

Pressure: 30.45 "Hg

Humidity: 93%

Dew point: 45 °F

Location of BastiaLocation

Historic Weather in Bastia — Graph

°F

Bastia temperature yesterday

Maximum temperature yesterday: 63 °F (at 12:00 PM)
Minimum temperature yesterday: 45 °F (at 7:00 AM)
Average temperature yesterday: 53 °F

Past Weeks' High & Low Weather Summary

 TemperatureHumidityPressure
High64 °F (Dec 13, 1:30 PM)94% (Dec 7, 9:30 PM)30.48 "Hg (Dec 7, 9:30 PM)
Low41 °F (Dec 12, 7:30 AM)39% (Dec 11, 12:00 PM)29.71 "Hg (Dec 9, 6:30 AM)
Average53 °F76%30.08 "Hg
* Reported Dec 7 9:00 PM — Dec 22 9:00 PM, Bastia, Weather by CustomWeather, © 2014

Note: Actual official high and low records may vary slightly from our data, if they occured in-between our weather recording intervals... More about our weather records

Advertising

Bastia weather history for previous 24 hours

 ConditionsComfort  
Time TempWeatherWind HumidityBarometerVisibility
9:00 PM
Dec 22
46 °FPassing clouds.6 mph87%30.42 "HgN/A
8:30 PM48 °FPassing clouds.5 mph87%30.45 "HgN/A
8:00 PM48 °FPassing clouds.6 mph87%30.45 "HgN/A
7:30 PM48 °FPassing clouds.5 mph94%30.45 "HgN/A
7:00 PM48 °FPassing clouds.5 mph94%30.45 "HgN/A
6:30 PM50 °FPassing clouds.3 mph88%30.45 "HgN/A
6:00 PM48 °FPassing clouds.2 mph87%30.42 "HgN/A
5:30 PM50 °FPassing clouds.2 mph88%30.42 "HgN/A
5:00 PM54 °FPassing clouds.2 mph82%30.42 "HgN/A
4:30 PM55 °FPassing clouds.2 mph77%30.42 "HgN/A
4:00 PM57 °FPassing clouds.2 mph72%30.42 "HgN/A
3:30 PM59 °FPassing clouds.5 mph68%30.42 "HgN/A
3:00 PM61 °FPassing clouds.5 mph63%30.42 "HgN/A
2:30 PM61 °FPassing clouds.6 mph59%30.42 "HgN/A
2:00 PM63 °FPassing clouds.5 mph59%30.42 "HgN/A
1:30 PM63 °FPassing clouds.1 mph56%30.42 "HgN/A
1:05 PM63 °FPassing clouds.3 mph56%30.45 "HgN/A
12:30 PM63 °FPassing clouds.2 mph56%30.45 "HgN/A
12:00 PM61 °FPassing clouds.5 mph59%30.45 "HgN/A
11:30 AM59 °FPassing clouds.5 mph59%30.48 "HgN/A
11:00 AM57 °FPassing clouds.8 mph59%30.48 "HgN/A
10:30 AM55 °FPassing clouds.7 mph63%30.48 "HgN/A
10:00 AM54 °FPassing clouds.8 mph67%30.48 "HgN/A
9:30 AM52 °FPassing clouds.9 mph67%30.48 "HgN/A
9:05 AM50 °FPassing clouds.8 mph71%30.45 "HgN/A
8:30 AM48 °FPassing clouds.9 mph71%30.45 "HgN/A
8:00 AM48 °FPassing clouds.9 mph76%30.45 "HgN/A
7:30 AM48 °FPassing clouds.12 mph71%30.42 "HgN/A
7:00 AM48 °FPassing clouds.12 mph71%30.42 "HgN/A
6:34 AM48 °FPassing clouds.12 mph71%30.42 "HgN/A
6:00 AM48 °FPassing clouds.12 mph76%30.42 "HgN/A
5:30 AM48 °FPassing clouds.12 mph76%30.42 "HgN/A
3:30 AM48 °FPassing clouds.8 mph82%30.42 "HgN/A
3:00 AM50 °FPassing clouds.7 mph76%30.42 "HgN/A
2:30 AM50 °FClear.8 mph76%30.42 "HgN/A
2:00 AM50 °FClear.9 mph76%30.42 "HgN/A
1:30 AM50 °FPassing clouds.8 mph76%30.42 "HgN/A
1:00 AM50 °FPassing clouds.8 mph76%30.42 "HgN/A
12:30 AM50 °FPassing clouds.7 mph82%30.42 "HgN/A
12:00 AM48 °FPassing clouds.3 mph82%30.45 "HgN/A
11:30 PM
Dec 21
50 °FPassing clouds.5 mph82%30.45 "HgN/A
10:30 PM50 °FPassing clouds.7 mph88%30.42 "HgN/A
10:00 PM50 °FPassing clouds.6 mph88%30.42 "HgN/A
Weather by CustomWeather, © 2014

See weather overviewHow to use our weather pages